Regional Weather Roundup
Issued by NWS

Home | Current Version | Previous Version | Graphics & Text | Print | Product List | Glossary Off
Versions: 1 2 3 4 5 6 7 8 9 10 11 12 13 14 15 16 17 18 19 20 21 22 23 24 25 26 27 28 29 30 31 32 33 34 35 36 37 38 39 40 41 42 43 44 45 46 47 48 49 50

000
ASUS43 KLOT 290810
RWRIL

ILLINOIS REGIONAL WEATHER ROUNDUP
NATIONAL WEATHER SERVICE CHICAGO/ROMEOVILLE IL
200 AM CST MON DEC 29 2014

NOTE: "FAIR" INDICATES FEW OR NO CLOUDS BELOW 12,000 FEET WITH NO
SIGNIFICANT WEATHER AND/OR OBSTRUCTIONS TO VISIBILITY.

* THESE STATIONS ARE NOT UNDER NWS QUALITY CONTROL. THEY ALSO MAY NOT
  REPORT WEATHER SUCH AS PRECIPITATION OR FOG.

ILZ001-002-007-009-015-016-024-290900-
NORTHWEST ILLINOIS

CITY           SKY/WX    TMP DP  RH WIND       PRES   REMARKS
MOLINE         CLOUDY    24  20  84 CALM      30.27R
STERLING*      MOCLDY    25  19  80 CALM      30.27R
SAVANNA*       CLOUDY    26  20  79 CALM      30.28R
$$

ILZ003-004-008-010-011-017-018-290900-
NORTH CENTRAL ILLINOIS

CITY           SKY/WX    TMP DP  RH WIND       PRES   REMARKS
ROCKFORD       CLOUDY    25  20  81 CALM      30.29R
FREEPORT*      CLOUDY    24  20  87 N3        30.29S
ROCHELLE*      CLOUDY    24  20  86 CALM      30.28R
DE KALB*       CLOUDY    23  18  81 N3        30.27R
PERU*          PTCLDY    24  20  84 NE3       30.28R
$$

ILZ005-006-012>014-019>023-290900-
NORTHEAST ILLINOIS

CITY           SKY/WX    TMP DP  RH WIND       PRES   REMARKS
CHICAGO-OHARE  MOCLDY    27  19  72 N5        30.26R WCI  22
CHICAGO-MIDWAY MOCLDY    27  20  75 NW6       30.27R WCI  20
AURORA         MOCLDY    26  19  74 N3        30.27R
LANSING*       CLEAR     19  16  87 CALM      30.26S
JOLIET*        PTCLDY    21  18  89 CALM      30.27S
WAUKEGAN       MOCLDY    26  17  68 NW5       30.27R WCI  20
DUPAGE AIRPORT CLOUDY    24  19  81 N6        30.25S WCI  17
KANKAKEE*      CLEAR     19  16  89 SW5       30.28R WCI  12
WHEELING       MOCLDY    25  19  78 N3        30.29R
MORRIS*        PTCLDY    21  19  93 CALM      30.27R
ROMEOVILLE*    PTCLDY    23  19  83 NW5       30.26S WCI  17
NORTHERLY ISL    N/A     30  22  72 W5          N/A  WCI  25
$$

LMZ740>746-290900-
SOUTHERN LAKE MICHIGAN

STATION/POSITION SKY/WX   TEMP    WIND        PRES    VSBY  WAVE
                          AIR SEA DIR/SP/G                  HT/PER
                          (F)     (DEG/KT/KT) (MB)    (MI)  (FT/S)
WAUKEGAN HARBOR            28     350/  6/  8   N/A
HARRISON CRIB              31     300/  7/  8   N/A
BURNHAM HARBOR             30     270/  2/  5   N/A
CALUMET HARBOR             27     270/  3/  5 1023.7R
MICHIGAN CITY              33     320/ 11/ 12   N/A
$$

ILZ025>027-034>036-040-047-049-050-058-095>099-290900-
WEST-CENTRAL ILLINOIS

CITY           SKY/WX    TMP DP  RH WIND       PRES   REMARKS
QUINCY         PTCLDY    27  22  81 CALM      30.24R
GALESBURG*     PTCLDY    21  19  91 CALM      30.26R
MACOMB*        PTCLDY    23  22  96 CALM      30.28R
JACKSONVILLE*  CLEAR     24  22  91 CALM      30.26R
PITTSFIELD*    PTCLDY    25  23  93 CALM      30.26R
$$

ILZ028>032-037-038-041>044-048-051>054-059>061-290900-
CENTRAL ILLINOIS

CITY           SKY/WX    TMP DP  RH WIND       PRES   REMARKS
PONTIAC        CLEAR     21  18  90 CALM      30.28R
BLOOMINGTON    CLEAR     23  20  89 NE3       30.27R
DECATUR        CLEAR     22  20  92 CALM      30.26R
PEORIA         CLEAR     22  17  81 CALM      30.27R
LACON*         CLEAR     19  16  88 CALM      30.26S
LINCOLN*       CLEAR     23  22  95 CALM      30.28R
SPRINGFIELD    CLEAR     22  18  85 CALM      30.26S
TAYLORVILLE    CLEAR     23  23 100 CALM      30.26S FOG
$$

ILZ033-039-045-046-055>057-062-063-290900-
EAST-CENTRAL ILLINOIS

CITY           SKY/WX    TMP DP  RH WIND       PRES   REMARKS
CHAMPAIGN      CLEAR     20  16  84 N3        30.26R
DANVILLE*      CLEAR     20  19  94 N5        30.24R FOG     WCI  13
RANTOUL*       CLEAR     22  18  86 CALM      30.27R
MATTOON        CLEAR     22  20  92 N5        30.25R WCI  16
PARIS*         CLEAR     24  23  97 CALM      30.27R
$$

ILZ079-100>102-290900-
SOUTHWEST ILLINOIS

CITY           SKY/WX    TMP DP  RH WIND       PRES   REMARKS
ALTON          CLEAR     25  24  97 CALM      30.26S FOG
BELLEVILLE     CLEAR     23  23 100 N2        30.26R
CAHOKIA*       CLEAR     24  23  96 SE3       30.26R
SPARTA*        CLEAR     25  24  95 CALM      30.26R
$$

ILZ064>066-069>071-074>076-080>082-084>086-088>090-092>094-290900-
SOUTH-CENTRAL ILLINOIS

CITY           SKY/WX    TMP DP  RH WIND       PRES   REMARKS
CARBONDALE     CLOUDY    29  25  85 CALM      30.25R
CAIRO*         CLOUDY    34  29  80 N8        30.23S WCI  28
EFFINGHAM*     CLEAR     24  22  91 CALM      30.27R FOG
MARION         CLOUDY    30  27  86 CALM      30.25R
MT. VERNON     CLEAR     21  18  86 CALM      30.25R
CENTRALIA*     CLEAR     25  24  93 CALM      30.25R FOG
SALEM*         CLEAR     27  24  91 CALM      30.26R FOG
METROPOLIS*    CLOUDY    32  29  88 N5        30.22R WCI  28
$$

ILZ067-068-072-073-078-083-087-091-290900-
SOUTHEAST ILLINOIS

CITY           SKY/WX    TMP DP  RH WIND       PRES   REMARKS
LAWRENCEVILLE  CLEAR     25  22  88 N5        30.25R WCI  19
FLORA*         CLEAR     25  24  98 N3        30.26R
FAIRFIELD*     CLEAR     25  23  94 N3        30.24S
HARRISBURG*    CLEAR     26  25  98 CALM      30.26R
ROBINSON*      CLEAR     21  21  98 CALM      30.26S
CARMI*         PTCLDY    27  26  96 N5        30.24R WCI  21
$$

ABBREVIATIONS USED IN REMARKS
   TC - TEMPERATURE IN CELSIUS
  WCI - WIND CHILL INDEX
   HX - HEAT INDEX
  VSB - VISIBILITY
$$




USA.gov is the U.S. government's official web portal to all federal, state and local government web resources and services.